Wind_Speed
40 40 40 39 39 39 39 39 38 37 37 38 38 38 39 39 39 39 39 40 41 42 42 43 43 44 45 46 46 46 47 47 47 47 47 48 49 49 49 50 51 51 51
40 40 40 40 39 39 40 39 39 38 38 38 38 38 39 39 39 39 39 40 41 42 42 43 44 44 45 45 46 46 46 47 47 47 47 48 48 49 49 49 50 51 51
40 40 40 40 40 39 39 39 39 39 38 38 38 39 38 38 38 39 39 38 39 40 41 42 42 43 44 44 44 45 46 46 46 46 46 47 47 48 48 48 48 49 50
40 40 40 40 40 40 39 39 39 39 39 39 39 38 38 38 38 39 39 39 39 40 40 41 42 42 42 44 44 45 46 46 46 46 46 46 47 47 48 48 49 50 50
39 39 40 40 40 40 39 39 39 39 39 39 38 38 38 38 39 39 40 39 39 40 40 41 42 43 43 44 45 46 46 46 46 46 46 47 47 48 48 49 49 49 49
38 38 39 39 39 39 39 38 38 39 39 39 38 38 39 39 39 40 40 40 40 40 40 41 42 43 44 45 45 45 46 46 47 47 47 48 48 48 49 49 49 48 48
37 37 38 38 39 39 39 39 38 39 39 39 39 39 38 38 39 39 40 41 41 41 41 42 43 44 45 45 45 46 47 47 46 47 47 47 47 47 48 49 49 48 48
36 36 36 37 37 37 37 38 38 38 38 39 39 39 39 39 39 40 40 40 40 41 41 41 42 42 42 43 43 44 45 45 46 46 46 46 47 47 48 48 48 47 47
35 35 35 36 36 37 37 37 37 37 38 38 39 39 39 39 39 40 40 39 39 40 39 39 39 40 41 42 42 43 44 45 45 45 45 45 46 46 46 46 46 46 46
35 36 35 36 36 37 37 38 38 38 39 39 39 39 39 39 39 39 39 39 39 39 39 39 39 39 40 41 41 42 43 44 45 44 44 45 45 46 46 46 47 47 48
36 36 36 36 36 37 38 38 39 39 39 39 38 38 38 38 38 38 39 39 39 38 38 38 39 40 40 40 40 41 42 43 43 44 44 44 44 45 45 46 47 48 48
37 37 37 37 37 38 39 39 39 39 39 39 39 38 38 38 38 39 39 39 39 39 39 39 39 39 40 40 40 41 41 42 43 43 43 44 45 45 46 47 47 47 48
38 38 38 38 38 38 39 39 38 38 38 39 39 38 38 37 38 38 38 38 38 39 39 39 39 39 40 40 40 41 42 43 43 43 43 44 45 46 46 47 47 47 48
37 37 38 38 38 37 38 38 37 37 37 37 37 37 37 37 37 37 38 38 38 38 38 39 39 39 40 40 40 41 42 43 43 43 43 45 45 46 46 46 46 47 47
34 35 36 36 36 36 36 37 37 36 36 36 36 36 36 36 36 37 37 37 38 38 38 38 39 39 40 40 41 41 42 42 42 43 43 43 44 45 45 46 46 46 47
31 32 33 33 34 34 35 35 35 35 35 35 36 36 36 36 36 36 36 37 37 37 38 38 38 39 40 41 41 42 42 42 43 42 42 42 43 43 44 44 45 45 45
30 30 31 31 32 33 33 34 34 34 34 34 35 35 35 35 36 36 36 36 37 37 38 38 39 40 40 41 41 42 42 42 42 42 42 42 42 43 43 43 43 43 44
30 30 30 31 32 32 32 33 33 33 33 33 34 34 34 34 34 35 36 36 37 37 38 39 39 40 41 41 41 42 42 42 42 42 42 42 42 42 42 42 43 43 44
30 30 30 31 31 31 31 32 32 32 33 33 33 33 34 34 35 36 36 37 37 38 38 39 39 40 41 41 41 41 41 41 41 41 41 41 41 41 42 42 42 43 43
29 29 29 30 30 30 31 31 31 31 32 33 33 34 34 35 35 36 36 37 37 38 38 39 39 40 40 40 40 40 40 40 40 40 40 41 40 40 41 41 41 42 42
28 28 28 28 29 29 29 30 31 31 32 32 33 34 34 35 35 35 36 36 36 37 37 38 39 39 38 38 38 38 38 38 38 39 39 40 40 40 40 40 40 40 39
27 27 28 28 28 28 29 29 30 30 31 32 32 32 33 33 33 34 34 35 35 36 37 37 37 37 36 36 36 36 36 36 37 38 38 38 38 38 38 38 38 38 37
27 27 27 27 27 27 28 29 29 29 30 30 31 31 32 32 32 32 33 34 35 35 35 35 35 35 35 35 35 35 35 36 36 36 36 36 36 35 35 35 35 34 34
26 26 26 26 26 27 27 28 28 28 28 29 30 30 30 30 31 32 33 33 34 34 34 34 35 35 34 34 34 34 34 34 34 34 33 33 32 32 32 32 32 32 32
25 25 25 26 26 26 26 26 26 27 27 27 28 28 29 30 30 31 31 32 32 33 33 33 33 33 32 32 32 33 32 32 31 31 30 30 29 30 30 30 30 30 30
25 25 25 26 26 25 25 26 26 26 26 27 27 28 28 29 29 30 30 30 30 31 31 30 30 31 31 31 31 30 30 29 29 29 28 28 28 29 29 29 29 29 29
Wind_Direction
252 252 253 254 256 257 258 259 261 263 263 263 262 262 262 262 260 259 258 257 256 257 259 259 259 259 260 261 262 263 264 264 264 264 264 264 265 266 267 267 268 267 266
252 253 254 255 257 258 259 260 261 263 264 263 263 263 263 262 261 260 260 258 258 258 259 259 258 260 261 262 263 263 264 265 265 265 265 266 266 267 268 269 269 268 268
253 254 255 256 258 259 260 261 262 263 264 264 264 263 263 263 263 262 261 260 260 259 260 260 261 261 262 262 264 265 265 265 266 266 266 267 268 268 269 269 269 269 269
254 255 256 258 259 260 261 262 262 264 265 265 264 264 263 264 263 262 263 262 261 261 262 261 261 262 263 262 264 265 266 266 266 266 266 267 268 269 269 269 269 269 270
256 257 258 259 260 260 261 262 263 264 265 265 264 264 265 265 264 264 263 264 263 264 263 263 263 263 264 265 266 266 267 267 268 268 267 267 268 269 269 270 270 270 270
257 258 259 259 259 259 259 261 262 264 264 264 264 265 265 265 264 264 264 264 264 264 264 264 264 265 266 267 267 267 267 267 268 268 268 268 268 268 269 270 270 271 271
258 258 259 259 259 259 260 261 262 263 263 263 264 265 265 265 265 266 266 266 266 266 265 266 265 266 267 268 268 267 267 268 269 269 269 269 270 269 270 270 270 271 272
258 258 259 260 259 259 260 261 262 262 263 264 264 265 265 266 266 267 267 267 267 267 268 269 268 268 269 269 269 269 270 270 270 270 270 271 270 270 270 270 270 271 271
258 260 261 261 260 260 261 262 262 263 264 264 265 266 266 267 267 268 268 267 267 268 268 269 269 269 270 270 270 270 271 271 271 272 272 272 271 270 270 270 270 270 271
259 260 261 262 262 263 263 263 263 264 264 265 265 266 266 267 267 268 267 267 268 268 268 269 269 270 270 270 270 271 271 271 270 270 272 272 271 271 271 271 272 272 272
259 261 262 262 263 265 265 265 265 265 265 265 266 266 266 266 266 267 267 268 268 269 269 270 270 271 271 272 272 272 272 271 271 271 272 272 272 272 272 273 274 273 273
260 261 263 263 264 265 266 266 266 266 266 266 266 267 268 267 266 266 267 267 268 269 269 270 271 272 273 273 273 274 273 273 272 272 273 273 273 274 274 274 275 275 274
261 262 264 265 265 266 266 267 267 267 266 266 267 267 268 267 267 267 266 267 267 268 268 270 271 272 273 274 275 275 274 274 275 275 275 275 275 275 275 276 276 275 275
263 263 265 265 265 265 266 266 267 267 267 267 266 267 267 267 267 267 266 266 267 268 269 270 270 272 274 275 275 276 276 276 276 277 276 275 275 276 276 276 275 275 275
265 265 265 265 264 265 266 267 267 268 268 268 268 267 267 267 267 267 267 267 268 269 271 271 272 274 275 276 277 277 278 278 278 278 278 277 276 276 277 277 277 276 275
265 265 265 265 265 266 266 267 267 269 270 269 268 268 267 268 267 267 268 269 270 272 272 273 274 275 276 277 279 279 279 279 279 279 279 279 279 278 278 277 277 277 277
266 265 265 265 265 265 266 267 267 268 269 269 268 267 267 268 268 268 270 271 272 273 273 274 275 276 277 279 279 280 279 279 279 279 279 280 280 279 279 278 278 278 279
267 267 268 268 268 268 268 268 268 268 268 269 268 268 267 267 268 269 270 272 272 274 274 275 275 277 278 279 280 280 279 279 279 279 280 280 280 280 280 280 279 279 280
266 267 269 270 270 269 269 269 268 268 268 269 269 268 269 269 269 270 271 272 273 274 274 275 276 278 279 279 279 279 279 279 279 279 280 280 280 280 280 280 280 280 281
266 267 269 270 270 270 270 269 269 269 269 269 269 270 270 270 270 271 271 273 274 274 274 275 277 278 279 279 279 279 279 279 279 280 280 280 280 280 280 280 280 281 281
267 268 268 269 270 270 270 271 270 270 271 271 271 271 271 271 272 272 272 273 274 275 276 277 278 279 279 280 280 279 280 280 280 281 281 281 281 280 280 280 281 281 280
267 267 268 269 270 271 271 272 271 272 271 271 271 271 272 272 272 273 274 275 276 276 277 278 279 280 280 280 280 280 280 280 281 281 282 282 282 281 280 280 280 280 279
267 268 268 269 271 273 273 272 272 272 272 272 271 271 272 272 273 274 275 276 277 277 278 279 280 280 280 280 280 281 281 282 283 283 282 282 282 281 280 280 280 279 277
269 268 268 270 272 274 274 274 273 273 273 272 272 272 273 273 274 275 276 277 278 278 278 279 279 280 280 280 281 281 282 283 283 283 282 281 280 280 280 280 279 278 277
269 269 269 271 272 273 274 274 275 275 275 275 274 274 275 276 277 278 279 280 281 281 281 280 280 280 280 281 282 282 283 283 283 283 283 282 281 281 280 279 278 278 278
270 271 272 272 272 273 275 276 276 277 278 277 277 277 278 278 279 280 281 282 282 282 281 281 281 281 281 281 282 282 282 282 282 282 282 282 281 281 281 280 279 278 277
Height
5633 5635 5638 5640 5642 5643 5645 5646 5647 5649 5650 5650 5651 5651 5652 5653 5654 5655 5656 5658 5659 5661 5663 5664 5666 5667 5668 5670 5670 5671 5672 5673 5674 5676 5676 5676 5676 5677 5677 5677 5677 5678 5679
5623 5625 5627 5630 5632 5634 5635 5636 5638 5639 5640 5640 5641 5642 5642 5643 5644 5645 5646 5648 5649 5650 5651 5652 5654 5655 5657 5657 5658 5659 5659 5660 5660 5662 5662 5662 5663 5663 5663 5663 5663 5663 5664
5613 5615 5617 5620 5622 5623 5625 5626 5627 5628 5629 5630 5631 5632 5632 5633 5633 5634 5636 5637 5638 5639 5640 5641 5642 5643 5644 5645 5646 5647 5647 5647 5647 5648 5649 5649 5649 5649 5649 5650 5649 5649 5650
5603 5605 5607 5609 5611 5613 5614 5616 5617 5618 5619 5620 5621 5621 5622 5622 5623 5624 5625 5627 5627 5628 5629 5630 5631 5631 5632 5633 5634 5634 5634 5634 5634 5635 5636 5636 5636 5636 5636 5636 5636 5636 5636
5593 5595 5597 5598 5600 5602 5604 5605 5607 5608 5609 5609 5610 5611 5611 5612 5613 5614 5615 5616 5617 5617 5618 5619 5619 5619 5620 5621 5621 5621 5621 5622 5622 5622 5623 5623 5623 5623 5623 5622 5622 5622 5622
5583 5584 5586 5588 5590 5591 5593 5594 5596 5597 5598 5599 5600 5601 5601 5602 5603 5603 5604 5605 5606 5606 5607 5607 5608 5608 5608 5608 5608 5609 5609 5609 5609 5609 5610 5610 5610 5609 5609 5608 5609 5609 5610
5573 5574 5576 5577 5579 5581 5582 5584 5585 5586 5587 5588 5589 5590 5590 5591 5591 5592 5592 5593 5594 5594 5595 5595 5596 5596 5596 5596 5596 5596 5596 5596 5596 5597 5597 5597 5597 5596 5596 5596 5595 5595 5596
5563 5564 5566 5567 5568 5570 5571 5573 5574 5575 5576 5577 5578 5578 5579 5579 5580 5580 5581 5581 5582 5582 5583 5583 5583 5583 5583 5583 5583 5583 5583 5583 5583 5583 5584 5584 5583 5582 5582 5582 5582 5582 5583
5553 5554 5555 5557 5558 5559 5560 5562 5563 5564 5565 5566 5566 5567 5567 5568 5568 5568 5569 5569 5570 5571 5571 5571 5571 5571 5571 5571 5571 5571 5571 5571 5570 5570 5570 5570 5569 5569 5569 5568 5569 5569 5570
5544 5545 5546 5546 5548 5549 5550 5551 5552 5553 5554 5554 5555 5555 5556 5556 5556 5556 5557 5558 5559 5559 5559 5559 5559 5559 5559 5558 5558 5558 5559 5558 5558 5557 5557 5557 5556 5556 5555 5555 5555 5555 5555
5534 5535 5536 5536 5537 5538 5539 5540 5540 5541 5542 5543 5544 5544 5544 5545 5545 5545 5545 5546 5547 5547 5548 5548 5548 5547 5547 5546 5546 5546 5546 5545 5545 5545 5544 5544 5543 5543 5542 5541 5541 5541 5541
5523 5524 5525 5526 5526 5527 5528 5528 5529 5530 5531 5531 5532 5533 5533 5533 5533 5533 5534 5534 5535 5536 5536 5537 5536 5536 5535 5535 5534 5534 5534 5533 5533 5532 5532 5531 5531 5530 5529 5528 5527 5526 5526
5512 5513 5514 5515 5515 5516 5516 5517 5517 5518 5518 5519 5520 5521 5522 5522 5522 5522 5522 5523 5523 5524 5524 5525 5525 5524 5524 5523 5523 5522 5521 5521 5521 5520 5519 5519 5518 5517 5516 5514 5513 5512 5512
5502 5502 5503 5504 5504 5505 5505 5506 5506 5506 5507 5507 5508 5509 5510 5510 5510 5510 5511 5511 5512 5512 5513 5513 5513 5513 5512 5512 5511 5510 5509 5509 5508 5507 5507 5506 5504 5503 5502 5501 5500 5499 5498
5491 5492 5492 5493 5494 5494 5494 5495 5495 5495 5495 5496 5497 5498 5498 5499 5499 5499 5500 5500 5501 5501 5501 5501 5501 5501 5501 5500 5500 5499 5498 5497 5495 5494 5493 5492 5491 5490 5489 5488 5487 5485 5485
5481 5482 5482 5483 5483 5484 5484 5485 5484 5485 5485 5485 5485 5486 5487 5488 5488 5488 5489 5489 5489 5489 5489 5489 5490 5489 5489 5488 5488 5486 5485 5484 5483 5482 5481 5480 5478 5477 5476 5474 5473 5472 5471
5472 5472 5472 5472 5473 5473 5474 5474 5475 5475 5474 5474 5474 5475 5476 5476 5477 5477 5478 5478 5478 5478 5478 5478 5478 5477 5477 5476 5475 5474 5473 5471 5470 5469 5468 5467 5465 5464 5463 5462 5460 5459 5458
5462 5462 5463 5463 5463 5463 5464 5464 5464 5464 5465 5464 5464 5465 5465 5466 5466 5466 5467 5467 5467 5467 5466 5466 5466 5465 5464 5463 5462 5461 5460 5458 5457 5456 5455 5454 5453 5451 5450 5449 5447 5446 5445
5453 5453 5453 5454 5454 5454 5454 5454 5454 5454 5454 5454 5455 5455 5455 5455 5456 5456 5456 5456 5456 5455 5455 5454 5454 5453 5452 5451 5449 5448 5447 5446 5445 5444 5443 5441 5440 5439 5437 5436 5434 5433 5432
5444 5444 5444 5444 5444 5444 5444 5444 5444 5444 5444 5444 5445 5445 5445 5445 5445 5445 5445 5445 5444 5444 5443 5442 5442 5440 5439 5438 5436 5435 5434 5433 5433 5431 5430 5429 5428 5426 5425 5423 5422 5420 5419
5435 5435 5435 5435 5435 5435 5435 5435 5435 5435 5434 5435 5435 5435 5435 5435 5435 5434 5434 5434 5433 5432 5431 5431 5430 5429 5427 5426 5425 5424 5423 5422 5421 5419 5418 5417 5415 5414 5413 5411 5409 5408 5406
5426 5426 5426 5426 5426 5426 5426 5426 5425 5425 5425 5425 5425 5425 5424 5424 5424 5424 5423 5423 5422 5421 5420 5419 5418 5417 5416 5415 5414 5413 5411 5410 5409 5408 5406 5405 5403 5402 5400 5399 5397 5396 5395
5418 5418 5418 5418 5418 5417 5417 5416 5416 5416 5415 5415 5415 5415 5415 5414 5414 5414 5413 5413 5412 5411 5410 5409 5407 5406 5405 5404 5403 5402 5401 5399 5398 5396 5395 5393 5391 5390 5389 5388 5386 5385 5384
5410 5410 5410 5409 5409 5409 5408 5407 5407 5407 5406 5406 5405 5405 5405 5405 5404 5404 5403 5402 5401 5400 5399 5398 5397 5396 5394 5393 5392 5391 5390 5388 5387 5385 5384 5382 5381 5379 5378 5377 5376 5375 5374
5402 5402 5401 5401 5401 5400 5400 5399 5399 5398 5397 5397 5396 5396 5396 5395 5395 5394 5393 5392 5391 5390 5389 5388 5387 5385 5384 5383 5382 5381 5380 5378 5376 5375 5374 5373 5371 5370 5369 5367 5366 5365 5364
5394 5394 5394 5393 5393 5392 5392 5391 5390 5390 5389 5388 5388 5387 5386 5386 5385 5384 5383 5382 5381 5380 5379 5378 5377 5376 5375 5374 5372 5371 5370 5369 5367 5366 5365 5364 5363 5361 5360 5359 5357 5356 5356